Temperature
8 7 7 7 7 7 7 7 7 7 7 7 7 7 7 7 8 8 8 8 8 9 9 9 9 9 9 9 9 9 9 9 9 9 9 9 9 9 9 9 9 9 9
7 7 7 7 6 6 7 7 7 7 7 7 7 7 7 7 7 7 8 8 8 8 8 8 9 9 8 8 8 8 8 8 8 8 8 8 8 8 8 9 9 9 9
7 7 6 6 6 6 6 6 6 6 6 6 6 6 7 7 7 7 7 7 7 7 8 8 8 8 8 8 8 8 8 8 8 8 8 8 7 7 8 8 8 8 8
7 6 6 6 6 6 6 6 6 6 6 6 6 6 6 6 6 6 6 7 7 7 7 7 8 7 7 7 7 7 8 8 8 8 8 8 8 7 7 7 8 8 8
6 6 6 5 5 5 5 5 5 5 5 5 5 5 5 5 6 6 6 6 6 6 7 7 7 7 7 7 7 7 7 7 7 7 7 7 7 7 7 7 7 7 7
6 5 5 5 5 5 5 5 5 5 5 5 5 5 5 5 5 5 5 5 5 6 6 6 6 7 7 7 7 7 7 7 7 7 7 7 7 7 7 7 6 7 7
5 5 4 4 5 5 5 5 4 4 4 4 4 4 4 4 5 5 5 5 5 5 5 5 6 6 6 6 6 6 6 6 6 6 6 6 7 7 7 7 6 6 6
4 4 4 4 4 4 4 4 4 4 4 4 4 4 4 4 4 4 4 4 5 5 5 5 5 5 5 5 5 6 6 6 6 6 6 6 6 6 6 6 6 5 5
4 3 4 4 4 4 4 4 4 4 4 3 3 3 3 4 4 4 4 4 4 4 4 4 4 5 5 5 5 5 5 5 5 5 5 6 6 6 6 6 6 5 5
3 3 3 3 3 3 3 3 3 3 3 3 3 3 3 3 3 3 3 3 3 3 3 3 4 4 4 4 4 4 5 5 5 5 5 5 5 5 5 6 5 5 5
3 3 3 3 3 3 3 3 3 3 3 3 2 2 2 2 2 2 2 3 3 3 3 3 3 3 4 4 4 4 4 4 4 5 5 5 5 5 5 5 5 5 5
3 2 2 2 2 2 2 2 2 2 2 2 2 2 2 2 2 2 2 2 2 2 2 3 3 3 3 3 3 3 4 4 4 4 4 4 4 5 5 5 5 5 4
2 2 2 2 2 2 2 2 2 2 2 2 1 1 2 1 1 2 2 2 2 2 2 2 2 2 2 3 3 3 3 3 3 3 4 4 4 4 4 4 4 4 4
2 1 1 1 1 1 1 1 1 1 1 1 1 1 1 1 1 1 1 1 1 1 1 1 2 2 2 2 2 2 2 3 3 3 3 3 3 3 4 4 4 3 3
1 1 1 1 1 1 1 1 1 1 1 1 1 1 1 1 1 1 1 1 1 1 1 1 1 1 1 2 2 2 2 2 2 3 3 3 3 3 3 3 3 3 3
1 0 0 0 0 -0 -0 0 0 0 0 0 0 0 0 0 0 0 0 0 0 0 0 0 0 1 1 1 1 1 1 2 2 2 2 2 2 3 3 2 2 2 2
-0 -0 -1 -1 -1 -1 -0 -0 -0 -0 -0 -0 -0 -0 -0 -0 -0 -0 -0 -0 -0 -1 -0 -0 -0 0 0 1 1 1 1 1 1 2 2 2 2 2 2 2 2 2 2
-1 -1 -1 -1 -1 -1 -1 -1 -1 -1 -1 -1 -1 -1 -1 -1 -1 -1 -1 -1 -1 -1 -1 -1 -1 -0 0 0 0 1 1 1 1 1 1 1 1 1 1 1 2 2 2
-1 -1 -1 -1 -1 -1 -1 -1 -1 -1 -1 -1 -1 -1 -1 -1 -1 -1 -1 -1 -1 -1 -1 -1 -1 -1 -0 -0 -0 0 0 0 0 0 1 1 1 1 1 1 1 1 1
-1 -1 -2 -2 -2 -2 -2 -2 -2 -2 -2 -2 -2 -2 -2 -2 -2 -2 -2 -2 -2 -2 -2 -2 -1 -1 -1 -1 -1 -0 -0 -0 -0 -0 -0 0 0 0 0 0 0 1 1
-2 -2 -2 -2 -2 -2 -2 -2 -2 -2 -2 -2 -2 -2 -2 -2 -2 -2 -2 -2 -2 -2 -2 -2 -2 -2 -2 -2 -1 -1 -1 -1 -1 -1 -1 -0 -0 -0 -0 -0 -0 0 0
-2 -2 -2 -2 -3 -3 -3 -3 -3 -3 -3 -3 -3 -2 -2 -2 -2 -2 -2 -2 -2 -2 -2 -2 -2 -2 -2 -2 -2 -1 -1 -1 -1 -1 -1 -1 -1 -1 -0 -0 -0 -0 -0
-3 -3 -3 -3 -3 -3 -3 -3 -3 -3 -3 -3 -3 -3 -3 -3 -3 -3 -3 -3 -3 -3 -3 -3 -3 -3 -2 -2 -2 -2 -2 -2 -2 -2 -2 -2 -1 -1 -1 -1 -1 -1 -0
-3 -3 -3 -3 -3 -3 -4 -3 -3 -3 -3 -3 -3 -3 -3 -3 -3 -3 -3 -3 -3 -3 -3 -3 -3 -3 -3 -3 -3 -3 -2 -2 -2 -2 -2 -2 -2 -2 -1 -1 -1 -1 -1
-3 -4 -4 -4 -4 -4 -4 -4 -4 -4 -3 -4 -4 -3 -3 -3 -3 -3 -3 -4 -4 -4 -4 -4 -4 -4 -4 -3 -3 -3 -3 -3 -3 -2 -2 -2 -2 -2 -2 -1 -1 -1 -1
-4 -4 -4 -4 -4 -4 -4 -4 -4 -4 -4 -4 -4 -4 -4 -4 -4 -4 -4 -4 -4 -4 -4 -4 -4 -4 -4 -4 -3 -3 -3 -3 -3 -3 -2 -2 -2 -2 -2 -2 -2 -2 -2
Wind_Speed
2 1 2 2 2 2 2 1 1 1 1 1 1 1 2 2 2 2 1 2 2 2 2 3 3 3 3 3 3 2 1 2 2 1 2 3 3 4 4 3 3 4 5
2 1 1 1 2 2 2 2 1 1 1 1 1 2 2 2 2 1 1 2 2 2 3 3 3 3 3 3 3 3 2 2 2 2 1 2 2 3 4 4 4 4 3
3 2 2 1 2 2 2 2 2 1 1 1 1 1 1 1 1 1 1 2 3 3 2 3 3 3 3 4 4 4 4 4 3 2 2 2 3 2 2 4 4 4 4
3 2 2 2 2 2 2 2 2 1 1 1 1 1 2 2 3 2 2 2 2 2 2 2 3 3 3 4 4 3 3 4 4 2 2 2 2 2 2 2 3 4 5
2 2 2 2 2 2 1 2 2 1 1 1 2 2 2 2 1 1 1 1 1 2 2 2 2 3 3 3 4 3 3 4 4 3 2 2 2 2 2 4 3 3 4
3 3 3 2 2 2 0 1 1 1 1 1 2 1 2 2 2 2 1 1 1 1 1 1 1 2 2 3 4 3 4 4 4 3 3 3 3 3 3 4 4 4 4
4 4 3 2 2 2 1 1 1 2 1 1 2 2 2 2 2 2 2 1 1 1 1 2 1 2 2 2 2 3 4 4 4 4 4 3 4 3 3 3 4 4 3
5 4 3 2 2 2 2 1 1 1 1 1 1 2 2 2 2 1 2 2 2 2 2 2 2 2 2 2 2 2 3 3 4 5 4 3 4 3 3 3 3 3 3
6 5 4 3 2 2 2 2 1 1 1 1 1 2 2 1 1 1 2 2 2 2 2 2 2 2 2 2 2 2 2 2 3 4 4 3 3 3 3 3 3 4 4
6 6 5 3 2 2 1 1 1 1 1 1 2 2 2 2 1 1 1 2 2 2 2 2 2 2 2 2 2 2 2 2 2 3 4 4 3 3 3 4 3 4 4
6 5 5 4 3 3 2 2 2 2 2 2 2 2 3 2 1 1 2 2 2 2 2 1 1 2 2 2 2 2 3 3 3 2 3 4 4 3 3 3 3 4 4
5 5 5 5 4 3 3 3 3 2 2 1 1 2 2 3 2 2 2 1 2 1 2 1 2 2 2 2 2 3 3 3 3 3 3 4 4 4 4 4 4 4 4
6 5 5 5 5 4 3 3 3 3 2 2 2 2 2 3 3 3 2 2 2 2 2 2 2 2 3 3 3 3 3 3 4 3 3 3 3 5 3 3 4 3 3
5 5 5 5 5 4 3 3 3 3 3 3 3 2 2 2 3 3 2 2 2 2 2 3 3 3 2 3 3 3 2 3 3 3 3 3 4 4 4 4 4 4 3
6 5 5 5 5 5 5 3 3 3 3 3 3 3 2 3 3 3 3 3 3 3 3 3 3 2 2 2 2 2 3 3 3 3 3 3 4 5 5 4 4 4 4
6 6 6 6 6 5 5 4 3 3 3 3 4 3 3 3 3 3 3 3 3 3 3 3 3 3 3 4 5 4 3 3 3 3 3 3 4 4 5 4 5 5 6
7 6 6 5 5 5 4 4 3 3 3 3 3 4 3 3 4 4 4 4 4 3 3 3 3 3 4 5 6 5 3 3 3 3 3 3 2 2 2 3 3 4 5
6 6 5 5 5 5 4 4 3 3 3 3 3 4 4 4 4 4 4 3 3 3 3 3 3 3 4 6 6 6 3 2 3 3 2 2 2 2 1 1 2 3 3
5 5 4 4 5 4 4 4 4 3 3 4 4 4 4 4 4 4 4 4 3 4 4 3 3 3 4 5 6 6 2 2 2 2 2 2 1 2 1 1 2 2 2
5 4 4 4 4 4 4 4 4 3 3 4 4 4 4 3 4 4 4 3 3 3 4 4 4 3 3 6 6 5 2 2 2 2 2 2 2 2 2 2 2 3 2
5 4 4 4 4 4 3 3 3 3 3 4 4 4 4 4 3 3 3 3 3 3 3 4 4 3 4 5 6 6 3 2 2 2 2 2 3 3 3 2 2 2 2
5 4 4 4 4 4 3 3 4 3 3 4 4 4 4 4 4 3 3 3 3 3 3 3 4 3 4 5 6 7 6 5 2 3 3 3 4 3 3 2 2 2 1
4 3 3 4 4 4 3 3 4 4 4 4 4 4 4 4 3 3 3 3 3 2 3 3 3 4 4 5 8 8 7 7 4 3 4 5 5 3 2 2 2 1 0
3 2 3 3 4 4 4 3 4 4 3 4 4 4 3 4 3 3 3 2 3 3 3 3 4 4 4 4 4 4 4 5 4 3 4 5 5 3 3 2 2 1 0
2 2 2 2 3 3 3 4 3 3 3 3 4 4 4 4 4 4 3 3 3 3 3 3 3 4 4 5 7 5 4 3 3 3 2 2 3 3 2 2 2 2 1
2 2 2 2 3 3 3 3 3 3 3 3 4 3 3 3 3 3 4 6 5 7 7 6 5 4 6 8 8 8 7 7 5 3 2 3 2 3 3 2 2 2 1
Wind_Direction
266 305 314 317 323 305 307 283 256 267 303 270 245 256 263 276 276 257 230 201 204 198 189 185 189 186 188 196 193 201 191 228 194 210 265 279 253 241 232 221 218 223 212
278 301 321 338 311 309 310 292 257 262 268 263 258 252 254 255 255 260 228 212 211 213 215 188 195 199 194 200 203 196 207 230 216 206 233 281 279 252 244 228 224 228 220
285 294 307 315 318 313 310 297 277 267 251 254 254 299 289 276 269 262 204 210 222 214 205 204 194 202 200 202 211 209 209 221 239 213 192 204 238 273 247 238 229 227 228
298 292 302 322 320 313 310 293 272 264 239 217 233 228 254 264 283 260 234 213 224 222 208 206 206 206 212 210 222 223 219 218 227 242 238 237 219 229 283 268 241 232 231
324 318 312 317 328 326 306 287 276 257 225 205 226 236 260 274 296 276 229 218 229 213 206 219 208 209 217 219 228 234 221 227 231 239 246 249 252 244 233 260 256 257 244
344 335 328 344 344 346 282 251 280 288 244 224 242 235 265 281 282 272 232 228 243 229 198 238 223 210 223 228 225 235 225 229 234 241 242 231 227 228 232 245 251 257 256
338 326 324 333 328 329 312 251 252 272 261 261 269 255 262 251 251 256 240 243 246 248 233 254 245 243 239 244 242 239 230 226 229 235 241 245 241 226 233 231 250 266 271
334 325 319 323 331 335 327 309 268 295 297 285 294 274 262 243 246 262 260 247 241 243 236 237 241 250 245 261 266 267 254 232 230 236 236 245 245 228 227 221 227 256 271
341 334 333 336 345 344 335 314 280 324 331 8 345 306 287 297 299 274 267 266 254 256 239 244 247 256 264 256 267 273 275 264 245 240 238 244 250 235 229 222 209 214 244
346 342 344 340 350 352 345 331 339 347 357 36 14 333 321 310 298 284 282 277 271 255 238 257 275 274 272 257 259 272 271 274 274 252 240 245 253 244 226 219 224 222 229
342 344 346 350 355 358 7 6 2 13 21 38 15 355 340 324 313 294 279 275 282 265 242 246 260 266 263 259 261 266 270 266 269 273 253 245 247 244 231 221 220 225 225
352 354 351 357 2 2 10 10 2 9 11 24 12 358 339 340 329 319 312 299 289 287 274 254 247 257 266 267 260 263 269 267 266 261 260 257 252 244 233 224 222 222 221
355 358 358 3 358 354 0 356 5 12 15 16 359 355 347 349 338 339 338 336 324 318 307 283 266 264 265 264 257 256 261 269 270 267 261 262 258 251 238 226 227 229 232
353 355 353 354 354 351 352 1 4 12 10 6 358 358 356 347 339 337 338 336 325 319 313 302 290 282 279 276 272 273 280 286 286 281 274 268 260 266 253 235 227 224 228
348 351 350 349 351 356 359 357 359 7 9 5 359 357 4 353 342 342 339 335 333 330 321 314 307 298 292 284 286 284 287 282 282 283 275 266 262 266 263 251 228 219 223
346 349 347 348 350 351 348 349 347 358 2 1 353 354 4 356 341 336 341 343 342 337 331 317 315 315 309 300 301 296 281 275 270 274 273 269 258 268 267 268 256 229 218
347 346 340 340 340 339 341 342 336 349 360 356 350 352 354 348 338 339 347 346 337 328 326 321 324 326 312 306 306 306 296 281 274 270 272 281 275 279 257 270 282 259 237
340 338 341 340 340 342 344 341 344 358 357 353 352 352 350 344 341 344 343 339 331 322 320 318 317 318 314 320 317 321 312 300 288 284 273 273 282 263 270 267 266 262 248
336 337 343 340 339 343 347 352 353 0 358 352 348 347 347 342 340 341 339 333 330 328 322 314 314 316 312 324 326 323 305 306 305 299 298 280 261 283 299 267 261 273 272
346 344 342 345 346 344 354 356 350 0 351 344 342 340 341 337 332 333 328 326 327 320 320 320 320 318 319 324 327 329 320 319 314 313 312 295 280 277 276 250 239 258 263
338 340 343 347 342 344 356 352 348 353 346 348 347 344 345 339 330 333 330 329 331 328 325 328 330 331 329 333 338 342 343 327 320 318 321 313 306 290 290 290 253 272 269
336 341 346 344 340 350 1 350 344 349 357 356 354 350 349 342 340 347 343 340 340 336 333 340 342 343 341 345 345 347 345 341 324 317 321 325 316 307 310 311 312 325 312
330 339 343 337 343 355 3 353 343 353 355 357 357 354 350 344 342 350 347 343 343 345 340 348 348 348 352 355 355 349 346 345 337 328 335 338 334 331 338 345 341 349 10
328 336 339 340 345 351 358 349 345 351 359 358 352 352 356 350 349 346 340 343 346 348 346 348 345 342 342 345 344 341 341 344 342 338 344 350 349 348 345 349 350 357 45
320 329 336 337 339 348 355 351 353 356 4 357 352 353 356 353 353 353 351 344 344 343 341 336 334 333 334 337 339 340 343 340 332 333 341 353 352 355 358 8 10 14 28
323 336 341 341 339 345 351 353 353 359 4 356 356 355 354 353 354 356 358 4 1 0 358 352 345 342 341 342 348 351 350 351 351 352 354 356 353 351 355 2 6 5 10
Height
1469 1469 1468 1467 1467 1467 1466 1466 1465 1465 1465 1465 1465 1465 1465 1466 1467 1467 1468 1470 1471 1472 1473 1474 1475 1477 1478 1479 1480 1481 1481 1482 1482 1483 1483 1483 1484 1485 1486 1487 1487 1488 1489
1466 1465 1465 1464 1464 1463 1463 1462 1462 1462 1461 1462 1463 1463 1462 1462 1463 1464 1465 1466 1467 1468 1470 1470 1471 1472 1474 1475 1476 1477 1478 1479 1479 1479 1479 1479 1481 1481 1482 1483 1483 1484 1485
1463 1462 1462 1461 1460 1460 1459 1459 1458 1458 1458 1459 1460 1460 1460 1460 1460 1461 1461 1463 1464 1465 1466 1466 1467 1468 1470 1471 1472 1473 1474 1475 1476 1476 1477 1476 1476 1476 1477 1478 1479 1480 1480
1460 1460 1459 1458 1457 1457 1456 1456 1456 1455 1455 1456 1456 1457 1457 1456 1456 1457 1458 1459 1460 1461 1462 1462 1463 1464 1466 1467 1468 1470 1471 1472 1471 1472 1472 1474 1473 1474 1472 1473 1474 1475 1476
1457 1457 1456 1455 1454 1454 1454 1453 1453 1453 1453 1453 1454 1454 1454 1453 1453 1454 1454 1455 1456 1457 1458 1458 1459 1460 1461 1463 1464 1465 1467 1468 1467 1468 1468 1468 1469 1469 1469 1469 1470 1471 1471
1455 1454 1453 1453 1452 1451 1451 1450 1450 1449 1450 1450 1451 1451 1451 1450 1450 1450 1451 1451 1452 1453 1453 1454 1455 1456 1457 1459 1460 1461 1462 1463 1463 1464 1465 1465 1465 1465 1465 1465 1465 1466 1466
1454 1452 1451 1450 1449 1449 1449 1448 1448 1447 1446 1447 1448 1448 1448 1447 1448 1447 1448 1448 1448 1449 1450 1450 1451 1452 1453 1454 1455 1456 1457 1458 1459 1459 1460 1461 1461 1461 1462 1462 1461 1461 1462
1452 1450 1449 1448 1447 1447 1446 1446 1445 1444 1444 1444 1445 1446 1446 1445 1445 1445 1445 1445 1446 1446 1447 1447 1448 1448 1449 1450 1451 1452 1453 1453 1454 1455 1455 1456 1456 1457 1458 1458 1458 1458 1458
1450 1448 1447 1446 1445 1445 1444 1444 1443 1442 1442 1442 1442 1443 1443 1443 1443 1443 1443 1443 1444 1444 1444 1445 1444 1445 1445 1446 1447 1447 1448 1449 1450 1450 1450 1451 1451 1452 1453 1454 1454 1455 1453
1449 1447 1446 1445 1444 1443 1442 1442 1441 1440 1440 1440 1441 1441 1440 1440 1440 1440 1440 1440 1441 1441 1441 1441 1441 1441 1441 1442 1443 1443 1444 1444 1445 1445 1445 1446 1447 1448 1448 1449 1449 1450 1450
1449 1447 1445 1444 1443 1441 1441 1440 1439 1438 1438 1438 1438 1438 1438 1438 1438 1438 1438 1438 1438 1438 1438 1438 1438 1438 1438 1439 1439 1439 1440 1440 1440 1441 1441 1441 1442 1443 1443 1444 1445 1445 1446
1449 1446 1444 1443 1442 1441 1440 1439 1438 1437 1437 1437 1437 1436 1436 1435 1435 1435 1436 1436 1436 1435 1435 1435 1435 1435 1435 1435 1435 1436 1436 1436 1436 1436 1437 1436 1437 1438 1439 1439 1440 1440 1441
1449 1446 1445 1443 1441 1440 1439 1438 1437 1436 1435 1435 1435 1434 1433 1433 1433 1433 1434 1433 1433 1432 1432 1432 1432 1432 1432 1432 1432 1433 1433 1433 1432 1432 1432 1432 1433 1433 1433 1434 1435 1436 1436
1449 1447 1445 1442 1441 1439 1438 1437 1436 1435 1434 1434 1433 1432 1432 1432 1432 1432 1431 1431 1430 1430 1429 1429 1429 1429 1429 1429 1429 1429 1429 1428 1428 1428 1428 1428 1428 1428 1428 1429 1430 1431 1432
1449 1446 1445 1442 1441 1439 1437 1436 1435 1434 1433 1433 1432 1431 1431 1431 1430 1430 1429 1428 1427 1427 1427 1427 1427 1427 1426 1426 1426 1426 1425 1425 1424 1424 1424 1424 1424 1424 1424 1424 1425 1426 1427
1448 1446 1443 1441 1440 1438 1436 1435 1434 1433 1432 1431 1431 1430 1430 1429 1428 1428 1427 1426 1425 1425 1425 1425 1424 1424 1423 1423 1423 1422 1421 1421 1420 1420 1419 1419 1419 1419 1420 1420 1421 1422 1422
1447 1445 1443 1441 1440 1438 1436 1434 1433 1432 1431 1430 1430 1429 1428 1427 1426 1425 1425 1424 1423 1423 1423 1422 1422 1421 1420 1420 1420 1419 1418 1417 1416 1416 1416 1415 1415 1415 1416 1416 1416 1417 1418
1446 1444 1442 1440 1438 1437 1435 1433 1432 1431 1430 1429 1428 1427 1427 1425 1424 1424 1423 1422 1422 1421 1420 1420 1419 1418 1417 1418 1417 1416 1414 1413 1413 1413 1412 1412 1412 1412 1413 1413 1413 1413 1414
1446 1443 1441 1439 1437 1435 1434 1432 1430 1429 1428 1427 1426 1426 1425 1424 1423 1422 1421 1421 1420 1419 1418 1418 1417 1415 1415 1415 1414 1413 1411 1410 1410 1409 1409 1409 1409 1410 1410 1410 1410 1410 1410
1444 1442 1439 1437 1435 1434 1432 1431 1429 1428 1427 1427 1426 1425 1424 1423 1422 1421 1420 1419 1418 1417 1416 1416 1415 1413 1412 1412 1411 1410 1408 1407 1407 1406 1406 1406 1407 1407 1407 1407 1407 1407 1407
1442 1440 1438 1436 1434 1433 1431 1430 1429 1428 1427 1426 1425 1424 1423 1422 1421 1420 1419 1417 1416 1415 1414 1413 1412 1411 1410 1410 1409 1408 1407 1406 1405 1404 1404 1403 1404 1404 1404 1404 1404 1404 1404
1440 1438 1436 1434 1433 1432 1430 1429 1428 1427 1426 1425 1424 1423 1422 1421 1420 1419 1417 1416 1415 1413 1412 1411 1410 1409 1409 1408 1407 1406 1405 1404 1403 1402 1402 1401 1401 1401 1402 1402 1401 1401 1402
1438 1436 1435 1433 1432 1431 1430 1428 1427 1427 1426 1424 1423 1422 1421 1420 1419 1417 1416 1415 1414 1412 1411 1410 1408 1407 1407 1406 1405 1404 1403 1402 1402 1401 1400 1399 1399 1399 1399 1399 1399 1398 1398
1436 1435 1433 1432 1431 1430 1429 1428 1427 1426 1425 1423 1422 1421 1421 1420 1418 1417 1416 1414 1413 1412 1410 1409 1408 1407 1406 1405 1404 1402 1401 1401 1400 1399 1398 1398 1397 1397 1397 1397 1396 1396 1396
1434 1433 1432 1431 1430 1430 1429 1428 1427 1425 1424 1423 1422 1421 1420 1419 1417 1416 1415 1414 1413 1413 1411 1410 1409 1407 1405 1404 1404 1402 1401 1400 1399 1398 1397 1396 1395 1395 1395 1395 1395 1394 1394
1433 1432 1431 1430 1429 1428 1427 1427 1426 1425 1423 1422 1421 1420 1419 1418 1417 1415 1415 1414 1413 1412 1411 1410 1409 1407 1406 1404 1403 1401 1400 1399 1398 1397 1396 1395 1395 1394 1394 1394 1393 1393 1393